[[{"header":{"parameterUnit":"m.s-1","parameterCategory":1,"la1":30.2991,"la2":30.254,"lo1":-89.0895,"lo2":-89.0444,"dy":0.0017,"dx":0.0017,"nx":28,"ny":28,"refTime":"2025-03-20T03:00:00:Z","depth":0,"parameterNumber":2,"parameterNumberName":"U-component_of_WINDS"},"data":[0,0,0,0,0,0,0,0,0,0,0,0,0,0,0,0,0,0,0,0,0,0,0,0,0,0,0,0,0,0,0,0,0,0,0,0,0,0,0,0,0,0,0,0,0,0,0,0,0,0,0,0,0,0,0,0,0,0,6.4214,6.4215,0,6.4301,6.4302,6.4303,6.4257,6.4254,6.4252,6.425,6.4337,6.4341,6.4345,0,0,0,0,0,0,0,0,0,0,0,0,0,6.4006,6.401,6.4213,6.4215,6.4216,6.4301,6.4302,6.4303,6.4257,6.4254,6.4251,6.4249,6.4335,6.434,6.4346,0,0,0,0,0,0,0,0,0,0,0,0,0,6.4095,6.4012,6.4213,6.4203,6.4203,6.4301,6.4302,6.4303,6.4258,6.4254,6.425,6.4247,6.4333,6.434,6.4347,6.4459,0,0,6.4367,6.437,0,0,0,0,0,0,0,0,6.409,6.4103,6.4203,6.4204,6.4204,6.4264,6.4261,6.4355,6.4258,6.4237,6.425,6.4245,6.4315,6.4323,6.4347,6.4463,6.4467,6.4368,6.4372,6.4375,6.4377,0,0,0,0,0,0,0,6.4084,6.4099,6.4248,6.4205,6.4205,6.4194,6.4203,6.4278,6.4295,6.4238,6.4235,6.4246,6.4315,6.4341,6.4349,6.4468,6.4368,6.4374,6.4378,6.438,6.4682,6.4686,0,0,0,0,0,0,6.4079,6.4094,6.4245,6.4251,6.4137,6.42,6.421,6.4248,6.4294,6.4297,6.4249,6.4244,6.4331,6.4341,6.4352,6.4488,6.4375,6.4381,6.4385,6.4679,6.4683,6.4688,0,0,0,0,0,0,6.4074,6.4093,6.4242,6.4172,6.419,6.4208,6.4251,6.4252,6.4278,6.4302,6.4304,6.4273,6.4329,6.4342,6.4433,6.449,6.4384,6.439,6.4674,6.468,6.4685,6.4759,0,0,0,0,0,0,6.4069,6.4091,6.4134,6.4173,6.4194,6.4322,6.4255,6.4256,6.429,6.4284,6.4325,6.4328,6.4327,6.4424,6.444,6.4497,6.4396,6.4669,6.4677,6.4684,6.4752,6.4767,6.478,0,0,0,0,0,6.4061,6.415,6.4136,6.4155,6.4247,6.4325,6.4337,6.4334,6.4295,6.4338,6.4354,6.4327,6.4481,6.4433,6.4451,6.4512,6.4665,6.4674,6.4683,6.4745,6.4764,6.478,0,0,0,0,0,0,6.4116,6.4155,6.414,6.4244,6.4282,6.4317,6.4371,6.4354,6.4403,6.4395,6.4389,6.4398,6.4493,6.4511,6.4457,6.4624,6.4567,6.458,6.4608,6.4626,6.464,6.4633,6.4401,0,0,0,0,0,6.414,6.4201,6.4231,6.432,6.434,6.4353,6.4387,6.4382,6.442,6.4436,6.4458,6.4496,6.4553,6.4591,6.4644,6.4755,6.4764,6.4805,6.4819,6.4831,6.4842,6.4904,6.4923,6.4717,6.4717,6.4717,0,0,6.419,6.4219,6.4257,6.4332,6.436,6.4424,6.4366,6.4434,6.4481,6.4446,6.4533,6.4552,6.4594,6.4695,6.4741,6.4713,6.4901,6.4842,6.4851,6.4856,6.4915,6.4934,6.4952,6.4723,6.4722,6.4721,0,0,6.4314,6.4342,6.442,6.4451,6.4496,6.4504,6.4523,6.4562,6.4573,6.4662,6.4637,6.4693,6.4791,6.4823,6.4851,6.4992,6.4969,6.5009,6.5082,6.5143,6.5159,6.5173,6.5224,6.5242,6.502,6.5021,6.5021,0,6.4371,6.4465,6.4462,6.4534,6.4568,6.454,6.462,6.4649,6.4709,6.4734,6.4702,6.4827,6.4853,6.4963,6.4997,6.5021,6.5043,6.5004,6.5157,6.5171,6.5185,6.5233,6.5252,6.5025,6.5025,6.5024,6.5024,0,6.4533,6.4599,6.4657,6.4717,6.4758,6.4833,6.4842,6.4883,6.4876,6.4888,6.4979,6.5011,6.5071,6.5097,6.5089,6.5207,6.5188,6.5157,6.51,6.5209,6.5255,6.5273,6.5032,6.503,6.5029,6.5028,0,0,6.4692,6.4752,6.4773,6.4802,6.4851,6.4902,6.4976,6.5037,6.5073,6.5116,6.5179,6.5265,6.5237,6.527,6.5266,6.5319,6.543,6.5281,6.5282,6.5308,6.5563,6.5586,6.5607,6.5416,6.5419,6.5422,6.5559,0,6.482,6.4951,6.4952,6.5073,6.5134,6.5111,6.5176,6.5214,6.5228,6.5282,6.5297,6.5358,6.5316,6.5336,6.5388,6.5405,6.5481,6.5395,6.5474,6.5477,6.5464,6.5631,6.5655,6.5783,6.5577,6.558,6.5582,0,6.4986,6.5037,6.5164,6.5207,6.5233,6.5291,6.5348,6.5401,6.5443,6.545,6.5489,6.5478,6.5554,6.5496,6.5602,6.5544,6.5576,6.559,6.5595,6.5602,6.5536,6.5643,6.5824,6.5843,6.561,6.5608,6.5606,0,6.509,6.519,6.528,6.5304,6.5356,6.5398,6.5422,6.5461,6.5498,6.5548,6.5573,6.5631,6.5662,6.5708,6.5713,6.5669,6.582,6.5761,6.5828,6.5828,6.586,6.5858,6.6049,6.5881,6.5881,6.588,6.588,0,6.5233,6.5312,6.5328,6.5383,6.5471,6.5472,6.556,6.558,6.5616,6.5674,6.5657,6.5713,6.5716,6.5774,6.5778,6.5866,6.5881,6.5888,6.5889,6.589,6.5889,6.5911,6.5902,6.5886,6.5884,6.5883,6.5883,0,6.5364,6.5377,6.5474,6.5516,6.5529,6.5592,6.5628,6.5681,6.5694,6.5769,6.5787,6.5808,6.5875,6.5885,6.5963,6.5966,6.6072,6.6063,6.6058,6.6056,6.6123,6.6117,6.6335,6.6364,6.6177,6.6178,6.618,0,6.5454,6.5515,6.5564,6.5603,6.5629,6.5692,6.5731,6.5735,6.5776,6.5831,6.5878,6.5943,6.5996,6.6104,6.6126,6.6186,6.6178,6.6251,6.6187,6.6187,6.618,6.6177,6.6183,6.6263,6.6265,6.6266,6.6268,0,6.5613,6.5618,6.5675,6.5735,6.5783,6.583,6.5874,6.5907,6.5917,6.5965,6.6034,6.6075,6.6156,6.6221,6.6282,6.6305,6.6289,6.6288,6.6307,6.6308,6.6304,6.6308,6.6091,6.6283,6.6281,6.628,6.6279,6.6279,6.5727,6.5781,6.5825,6.589,6.5924,6.5967,6.602,6.6041,6.6099,6.6166,6.6165,6.6241,6.6284,6.6364,6.6392,6.6452,6.6428,6.6455,6.6462,6.6469,6.6476,6.6295,6.6463,6.6462,6.6462,6.6462,6.6461,0,6.5886,6.5914,6.5974,6.6038,6.6089,6.6071,6.612,6.6164,6.6232,6.6274,6.6327,6.6407,6.6472,6.65,6.6563,6.6606,6.66,6.6622,6.6619,6.6625,6.6492,6.647,6.6626,6.6626,6.6626,6.6626,6.6626,6.6626,6.5975,6.6066,6.6076,6.6184,6.6211,6.6286,6.6316,6.6356,6.639,6.6481,6.6535,6.6553,6.6591,6.6657,6.6716,6.6722,6.6746,6.6773,6.6776,6.6651,6.6634,6.6618,6.6598,6.6778,6.6778,6.6904,6.6905,6.6906]},{"header":{"parameterUnit":"m.s-1","parameterCategory":1,"la1":30.2991,"la2":30.254,"lo1":-89.0895,"lo2":-89.0444,"dy":0.0017,"dx":0.0017,"nx":28,"ny":28,"refTime":"2025-03-20T03:00:00:Z","depth":0,"parameterNumber":3,"parameterNumberName":"V-component_of_WINDS"},"data":[0,0,0,0,0,0,0,0,0,0,0,0,0,0,0,0,0,0,0,0,0,0,0,0,0,0,0,0,0,0,0,0,0,0,0,0,0,0,0,0,0,0,0,0,0,0,0,0,0,0,0,0,0,0,0,0,0,0,-7.1268,-7.1269,0,-7.1417,-7.1419,-7.142,-7.1399,-7.1397,-7.1394,-7.1392,-7.1541,-7.1547,-7.1553,0,0,0,0,0,0,0,0,0,0,0,0,0,-7.0962,-7.0967,-7.1268,-7.1269,-7.1271,-7.1417,-7.1419,-7.1421,-7.14,-7.1397,-7.1394,-7.1391,-7.1539,-7.1546,-7.1553,0,0,0,0,0,0,0,0,0,0,0,0,0,-7.1101,-7.0969,-7.1267,-7.1278,-7.1281,-7.1416,-7.1419,-7.1421,-7.14,-7.1397,-7.1393,-7.1389,-7.1536,-7.1545,-7.1555,-7.1687,0,0,-7.1583,-7.1587,0,0,0,0,0,0,0,0,-7.1093,-7.1112,-7.1275,-7.1278,-7.1281,-7.1386,-7.1366,-7.151,-7.1401,-7.1355,-7.1392,-7.1388,-7.1492,-7.1505,-7.1541,-7.1694,-7.17,-7.1584,-7.159,-7.1594,-7.1596,0,0,0,0,0,0,0,-7.1084,-7.1106,-7.1327,-7.1277,-7.1281,-7.1275,-7.1291,-7.1393,-7.1442,-7.1359,-7.1358,-7.1376,-7.1493,-7.1532,-7.1544,-7.1703,-7.1584,-7.1592,-7.1598,-7.1602,-7.1975,-7.1979,0,0,0,0,0,0,-7.1071,-7.1098,-7.1322,-7.1331,-7.1176,-7.1284,-7.1301,-7.1356,-7.1441,-7.1451,-7.1379,-7.1374,-7.1517,-7.1533,-7.1549,-7.1712,-7.1594,-7.1603,-7.1608,-7.197,-7.1976,-7.198,0,0,0,0,0,0,-7.1065,-7.1092,-7.1316,-7.1214,-7.1242,-7.1293,-7.1354,-7.1361,-7.14,-7.1456,-7.1465,-7.141,-7.1515,-7.1536,-7.1654,-7.1716,-7.1607,-7.1615,-7.1965,-7.1972,-7.1978,-7.2037,0,0,0,0,0,0,-7.1056,-7.1089,-7.1141,-7.1216,-7.1248,-7.1419,-7.1358,-7.1366,-7.1417,-7.1412,-7.1488,-7.1496,-7.1514,-7.164,-7.1663,-7.1727,-7.1623,-7.196,-7.1968,-7.1976,-7.2029,-7.2044,-7.2057,0,0,0,0,0,-7.1045,-7.115,-7.1143,-7.117,-7.1313,-7.1422,-7.1441,-7.146,-7.1422,-7.1474,-7.151,-7.1494,-7.1706,-7.1652,-7.1678,-7.1746,-7.1956,-7.1966,-7.1975,-7.2023,-7.2041,-7.2057,0,0,0,0,0,0,-7.1078,-7.1159,-7.1153,-7.1285,-7.1348,-7.1419,-7.1484,-7.1478,-7.1551,-7.1544,-7.1563,-7.158,-7.17,-7.1735,-7.1673,-7.188,-7.1826,-7.1841,-7.1853,-7.1871,-7.1884,-7.1873,-7.1631,0,0,0,0,0,-7.1101,-7.1184,-7.125,-7.136,-7.1392,-7.1433,-7.1481,-7.1491,-7.1555,-7.1581,-7.1626,-7.1689,-7.1769,-7.1822,-7.1899,-7.2034,-7.2051,-7.2094,-7.2108,-7.2119,-7.2132,-7.2208,-7.2228,-7.2012,-7.2012,-7.2011,0,0,-7.1149,-7.1203,-7.1254,-7.1368,-7.1417,-7.1503,-7.1455,-7.1546,-7.161,-7.1594,-7.1709,-7.1745,-7.1816,-7.1944,-7.2002,-7.1976,-7.2196,-7.2131,-7.214,-7.2147,-7.222,-7.224,-7.2259,-7.2018,-7.2017,-7.2016,0,0,-7.1279,-7.1329,-7.1427,-7.1478,-7.1554,-7.1581,-7.1605,-7.1678,-7.1702,-7.1818,-7.1809,-7.1884,-7.2023,-7.2074,-7.2119,-7.2272,-7.226,-7.2297,-7.2369,-7.2443,-7.246,-7.2475,-7.2531,-7.255,-7.2309,-7.2309,-7.231,0,-7.1328,-7.1457,-7.1477,-7.1571,-7.1622,-7.1615,-7.1715,-7.1763,-7.186,-7.1895,-7.1865,-7.204,-7.2087,-7.2228,-7.2266,-7.2302,-7.233,-7.2288,-7.2456,-7.2471,-7.2486,-7.2539,-7.256,-7.2313,-7.2313,-7.2313,-7.2312,0,-7.1514,-7.1604,-7.1674,-7.1771,-7.1829,-7.1925,-7.196,-7.2017,-7.2023,-7.2053,-7.2172,-7.2229,-7.2318,-7.2353,-7.2357,-7.2495,-7.2477,-7.2451,-7.2397,-7.251,-7.2561,-7.2581,-7.2319,-7.2318,-7.2316,-7.2315,0,0,-7.1668,-7.1777,-7.1802,-7.1847,-7.1932,-7.2001,-7.2097,-7.2187,-7.2236,-7.2304,-7.2385,-7.2504,-7.2482,-7.2533,-7.2544,-7.2608,-7.2728,-7.2575,-7.2577,-7.2602,-7.2885,-7.2904,-7.2927,-7.2721,-7.2725,-7.2728,-7.2879,0,-7.1807,-7.1979,-7.2001,-7.2153,-7.2237,-7.2233,-7.2317,-7.2378,-7.241,-7.2485,-7.2519,-7.2603,-7.2567,-7.2598,-7.2662,-7.27,-7.2785,-7.2689,-7.2797,-7.2801,-7.278,-7.2954,-7.2974,-7.3113,-7.2899,-7.2902,-7.2905,0,-7.1992,-7.2068,-7.2229,-7.2305,-7.2341,-7.2416,-7.2502,-7.2574,-7.2643,-7.2662,-7.272,-7.2723,-7.2823,-7.2765,-7.2903,-7.2838,-7.2883,-7.2909,-7.2915,-7.2925,-7.286,-7.297,-7.3158,-7.3179,-7.2936,-7.2934,-7.2931,0,-7.2089,-7.2231,-7.2347,-7.2385,-7.2476,-7.2529,-7.2569,-7.2636,-7.2689,-7.2763,-7.2798,-7.2883,-7.2929,-7.2994,-7.302,-7.2976,-7.3157,-7.3101,-7.3176,-7.3175,-7.3214,-7.3211,-7.3412,-7.3242,-7.3242,-7.3242,-7.3241,0,-7.2243,-7.2342,-7.2392,-7.2463,-7.2574,-7.2599,-7.2708,-7.2746,-7.2806,-7.2884,-7.2885,-7.2958,-7.2988,-7.3066,-7.3087,-7.3199,-7.3219,-7.3237,-7.3242,-7.3238,-7.3235,-7.3267,-7.3259,-7.3247,-7.3246,-7.3245,-7.3244,0,-7.237,-7.2408,-7.2533,-7.2611,-7.2632,-7.2711,-7.2777,-7.2845,-7.2877,-7.2976,-7.3001,-7.305,-7.3142,-7.3176,-7.3286,-7.3301,-7.3431,-7.3427,-7.3408,-7.3409,-7.3482,-7.3475,-7.3712,-7.3745,-7.3552,-7.3554,-7.3556,0,-7.2465,-7.2542,-7.2628,-7.2682,-7.2725,-7.281,-7.2866,-7.2894,-7.2951,-7.3038,-7.3097,-7.3189,-7.3264,-7.3412,-7.3457,-7.3543,-7.3541,-7.3618,-7.3554,-7.3548,-7.3543,-7.3539,-7.3547,-7.363,-7.3632,-7.3633,-7.3635,0,-7.2632,-7.2647,-7.2728,-7.2816,-7.2883,-7.2953,-7.3021,-7.3065,-7.3103,-7.3168,-7.3263,-7.3322,-7.3437,-7.3529,-7.3618,-7.3658,-7.3654,-7.3655,-7.3677,-7.3673,-7.366,-7.367,-7.3442,-7.3649,-7.3648,-7.3647,-7.3646,-7.3645,-7.2747,-7.2816,-7.2888,-7.2978,-7.3033,-7.3098,-7.3167,-7.3209,-7.3289,-7.3387,-7.3398,-7.3501,-7.357,-7.3689,-7.3734,-7.3815,-7.3793,-7.3825,-7.3833,-7.384,-7.3847,-7.3647,-7.3831,-7.383,-7.383,-7.383,-7.3829,0,-7.2914,-7.2961,-7.3044,-7.3141,-7.3213,-7.3204,-7.3279,-7.3339,-7.3431,-7.3497,-7.3572,-7.3682,-7.3772,-7.3826,-7.3916,-7.397,-7.3971,-7.3993,-7.3989,-7.3999,-7.386,-7.3832,-7.3992,-7.3991,-7.3991,-7.3991,-7.3991,-7.3991,-7.301,-7.3126,-7.3151,-7.3295,-7.3341,-7.3443,-7.3488,-7.3547,-7.36,-7.3725,-7.38,-7.3835,-7.3896,-7.3992,-7.4074,-7.4087,-7.412,-7.4145,-7.4157,-7.4025,-7.4009,-7.3993,-7.3967,-7.4152,-7.4152,-7.429,-7.4291,-7.4292]}]]